User: anonymous   Login
Location: Geroldsau
(48.7259°N, 8.2466°E)
Time: 10:48:09
(UTC+00:00)
Language:

ADEOS Rocket - Orbit

View from above orbital plane
View from above orbital plane
View from above satellite
View from above satellite

Ground track
Ground track

The orbit data is extracted from the following two-line orbital elements,

1 24279U 96046C   21266.12620343  .00000043  00000-0  10197-3 0  9995
2 24279  98.7477  34.8393 0298995 272.6434 263.6460 13.47194920234149
Epoch (UTC): 23 September 2021 03:01:43
Eccentricity: 0.0298995
inclination: 98.7477°
perigee height: 859 km
apogee height: 1305 km
right ascension of ascending node: 34.8393°
argument of perigee: 272.6434°
revolutions per day: 13.47194920
mean anomaly at epoch: 263.6460°
orbit number at epoch: 23414

The dashed part of the orbit path shows where the satellite is in the earth's shadow,  

DLR